Location: Landeleau
(48.2273°N, 3.7285°W)
Time: 01:23:23
(UTC+00:00)

CZ-4 R/B - Pass Details

Date: 30 March 2020
Orbit: 532 x 598 km, 97.8° (Epoch: 30 May)

Event Time Altitude Azimuth Distance (km) Brightness Sun altitude
Rises 19:30:29 0° 200° (SSW) 2,685 4.9 -8.6°
Reaches altitude 10° 19:33:02 10° 217° (SW) 1,792 4.2 -9.0°
Maximum altitude 19:35:57 20° 267° (W) 1,257 4.2 -9.4°
Drops below altitude 10° 19:38:54 10° 316° (NW) 1,793 5.0 -9.9°
Sets 19:41:27 0° 334° (NNW) 2,689 5.6 -10.3°
